Retour au catalogue

FENGYUN 1C DEB

ActifPO
NORAD 37695·DEBRIS·🇨🇳 China

Lancé May 10, 1999 depuis Taiyuan Satellite Launch Center

Loading…

Prochains Passages (prochaines 24 heures)

TLE

VieillissantSource: Space-Track

Époque: Sep 3, 2026, 06:43 UTC

1 37695U 99025ELL 26246.28007049  .00000728  00000-0  45378-3 0  9992
2 37695  98.1883 254.7237 0458799 272.2949  96.2706 13.65771539928620

Suivez FENGYUN 1C DEB en temps réel avec AllMySat

Download on the App Store